Date,TemperatureHighF,TemperatureAvgF,TemperatureLowF,DewpointHighF,DewpointAvgF,DewpointLowF,HumidityHigh,HumidityAvg,HumidityLow,PressureMaxIn,PressureMinIn,WindSpeedMaxMPH,WindSpeedAvgMPH,GustSpeedMaxMPH,PrecipitationSumIn
2012-1-1,77.0,62.7,51.4,63.0,57.5,51.0,100,85,58,30.28,30.16,6,1,8,0.00
2012-1-2,65.6,59.9,54.1,65.0,51.1,38.0,98,74,51,30.24,30.09,13,4,23,0.05
2012-1-3,57.3,47.3,37.3,41.0,31.6,23.0,68,55,43,30.41,30.21,16,5,22,0.00
2012-1-4,55.0,39.9,32.2,32.0,24.3,5.0,92,59,14,30.46,30.32,5,1,9,0.00
2012-1-5,66.9,49.4,33.1,53.0,44.3,32.0,98,85,59,30.33,30.20,7,1,9,0.00
2012-1-6,71.4,56.1,44.2,60.0,52.4,44.0,100,89,61,30.24,30.13,6,1,10,0.00
2012-1-7,74.1,60.9,52.4,62.0,55.9,52.0,99,86,55,30.20,30.11,5,1,9,0.00
2012-1-8,77.1,60.4,49.4,59.0,52.9,49.0,99,80,44,30.24,30.16,6,1,8,0.00
2012-1-9,79.8,62.1,50.4,63.0,56.3,50.0,99,84,50,30.22,30.10,6,1,12,0.00
2012-1-10,79.7,64.9,53.7,64.0,58.7,53.0,99,82,50,30.10,29.95,7,2,13,0.00
2012-1-11,70.9,65.5,59.0,67.0,62.8,59.0,98,91,79,29.97,29.80,10,2,26,0.49
2012-1-12,75.6,66.3,57.0,66.0,61.8,57.0,100,86,69,29.97,29.84,14,3,14,0.00
2012-1-13,65.3,55.8,50.6,63.0,46.5,42.0,92,71,58,30.25,29.97,8,3,13,0.00
2012-1-14,56.9,49.4,39.2,48.0,33.5,24.0,91,58,30,30.38,30.23,9,3,13,0.00
2012-1-15,66.3,49.8,36.5,52.0,42.1,36.0,98,78,36,30.46,30.35,8,1,13,0.00
2012-1-16,71.5,57.2,40.4,54.0,48.3,40.0,97,74,50,30.46,30.31,15,3,16,0.00
2012-1-17,76.5,60.7,47.5,60.0,53.9,47.0,98,81,52,30.33,30.17,7,2,11,0.00
2012-1-18,74.2,61.1,51.7,66.0,59.0,51.0,99,93,72,30.15,30.01,8,2,11,0.36
2012-1-19,70.4,56.6,48.1,57.0,47.1,34.0,97,75,27,30.19,30.05,5,2,9,0.00
2012-1-20,76.4,58.3,44.6,57.0,51.7,44.0,99,82,47,30.19,30.11,8,2,12,0.00
2012-1-21,75.7,62.8,51.9,62.0,57.5,51.0,99,84,61,30.15,30.04,7,2,11,0.00
2012-1-22,78.6,63.5,53.1,67.0,59.8,53.0,100,89,67,30.13,30.06,6,1,8,0.00
2012-1-23,79.6,65.8,57.4,68.0,62.1,57.0,99,89,67,30.16,30.05,8,2,12,0.00
2012-1-24,79.4,65.3,57.1,67.0,61.7,57.0,100,89,64,30.18,30.09,7,1,10,0.00
2012-1-25,80.7,70.1,63.0,68.0,64.9,61.0,98,84,63,30.16,30.07,10,2,17,0.00
2012-1-26,80.4,70.2,60.5,69.0,65.6,60.0,99,86,65,30.09,29.94,10,3,17,0.00
2012-1-27,70.6,64.8,53.5,67.0,62.1,52.0,98,91,79,30.09,29.92,8,3,16,0.59
2012-1-28,69.7,58.9,50.2,60.0,54.3,50.0,100,86,64,30.20,30.07,9,1,15,0.01
2012-1-29,72.4,60.0,49.1,55.0,51.5,47.0,96,76,43,30.31,30.18,6,2,12,0.00
2012-1-30,73.3,62.0,52.9,53.0,48.2,41.0,86,63,38,30.38,30.26,9,4,15,0.00
2012-1-31,77.5,65.6,56.2,57.0,53.8,51.0,86,68,40,30.35,30.22,11,4,19,0.00
2012-2-1,79.8,66.9,55.1,64.0,59.9,54.0,98,80,55,30.26,30.14,8,2,11,0.00
2012-2-2,79.6,66.6,56.4,64.0,60.2,55.0,98,82,53,30.18,30.09,4,1,10,0.00
2012-2-3,75.9,69.7,65.0,65.0,62.3,59.0,89,78,65,30.22,30.13,13,5,19,0.00
2012-2-4,81.4,70.8,65.1,66.0,63.1,62.0,90,78,55,30.18,30.04,12,4,19,0.00
2012-2-5,81.2,70.6,64.0,69.0,65.8,63.0,98,85,64,30.08,29.99,7,2,9,0.00
2012-2-6,84.9,71.2,65.6,70.0,66.8,64.0,98,87,56,30.08,29.97,7,1,9,0.37
2012-2-7,71.3,66.9,63.1,68.0,65.4,62.0,99,95,89,30.08,30.00,7,2,10,0.01
2012-2-8,72.8,63.8,57.2,62.0,56.7,52.0,97,79,52,30.13,30.04,8,2,16,0.00
2012-2-9,71.8,63.5,58.0,58.0,53.8,49.0,87,71,55,30.17,30.06,6,2,10,0.00
2012-2-10,78.9,65.8,58.3,69.0,61.5,56.0,97,86,69,30.11,29.91,7,2,12,0.12
2012-2-11,63.7,58.7,51.7,62.0,51.2,34.0,98,77,51,30.17,29.89,15,4,21,0.03
2012-2-12,51.8,44.2,35.1,33.0,26.2,16.0,72,50,33,30.39,30.17,11,3,19,0.00
2012-2-13,63.8,48.4,33.7,42.0,34.8,28.0,92,62,34,30.30,30.12,7,2,11,0.00
2012-2-14,75.6,61.0,43.5,62.0,53.9,40.0,96,79,58,30.13,30.05,12,2,17,0.00
2012-2-15,80.3,68.5,61.5,64.0,62.1,60.0,96,81,53,30.20,30.09,8,2,12,0.00
2012-2-16,79.9,68.8,60.9,69.0,64.3,60.0,97,85,67,30.18,30.07,8,2,12,0.00
2012-2-17,71.7,67.5,65.3,70.0,66.8,65.0,100,97,90,30.08,29.99,5,1,8,0.21
2012-2-18,78.1,69.7,65.3,71.0,67.0,65.0,100,92,69,30.02,29.87,7,2,13,0.01
2012-2-19,77.6,69.5,62.7,72.0,66.2,56.0,99,89,78,29.96,29.83,12,5,20,0.00
2012-2-20,70.4,61.1,55.4,56.0,52.4,48.0,89,74,48,30.20,29.95,9,3,13,0.00
2012-2-21,78.0,62.4,53.2,61.0,56.1,50.0,95,81,56,30.23,30.11,7,2,10,0.00
2012-2-22,76.9,66.8,57.6,69.0,63.9,57.0,99,91,75,30.11,29.93,10,2,14,0.00
2012-2-23,79.1,71.5,68.1,72.0,69.4,68.0,100,93,78,29.97,29.88,11,4,18,0.00
2012-2-24,81.9,72.8,66.9,74.0,70.2,67.0,100,92,75,30.01,29.91,14,5,23,0.00
2012-2-25,71.4,66.1,60.4,71.0,46.9,38.0,98,54,33,30.24,30.00,12,4,15,0.01
2012-2-26,71.2,63.1,55.5,64.0,52.3,36.0,89,68,41,30.29,30.19,16,6,18,0.00
2012-2-27,87.2,74.2,66.1,71.0,67.6,64.0,96,81,58,30.28,30.19,9,3,13,0.00
2012-2-28,82.8,73.0,65.9,70.0,66.8,65.0,98,82,61,30.25,30.16,7,2,10,0.00
2012-2-29,85.2,72.7,65.9,71.0,67.5,65.0,98,85,58,30.22,30.10,12,3,14,0.00
2012-3-1,81.8,70.5,63.4,72.0,68.0,63.0,99,92,71,30.12,30.01,8,2,12,0.00
2012-3-2,83.8,74.3,68.0,73.0,70.2,68.0,100,88,67,30.04,29.93,9,2,14,0.01
2012-3-3,83.8,75.8,71.0,75.0,72.0,69.0,97,88,73,29.93,29.80,12,5,23,0.00
2012-3-4,73.7,61.9,47.8,72.0,47.9,35.0,96,63,35,30.23,29.69,15,6,25,0.18
2012-3-5,73.8,57.6,43.7,50.0,45.8,40.0,93,69,34,30.37,30.23,6,1,10,0.00
2012-3-6,77.8,63.1,48.9,57.0,53.3,48.0,98,73,45,30.40,30.29,17,5,22,0.00
2012-3-7,81.9,70.3,61.6,63.0,58.6,56.0,86,68,45,30.37,30.24,13,6,19,0.00
2012-3-8,86.1,73.5,63.5,68.0,64.6,61.0,96,76,45,30.27,30.12,13,4,16,0.00
2012-3-9,84.2,73.4,65.4,70.0,67.7,64.0,97,83,62,30.20,30.10,11,3,13,0.00
2012-3-10,81.0,70.1,62.3,67.0,64.4,62.0,98,83,58,30.21,30.10,10,3,15,0.00
2012-3-11,84.5,72.4,65.6,68.0,65.9,63.0,95,81,54,30.27,30.16,16,6,17,0.00
2012-3-12,82.1,73.2,67.0,66.0,62.9,60.0,88,72,51,30.27,30.16,10,5,16,0.00
2012-3-13,84.1,71.8,60.4,66.0,62.5,59.0,97,75,47,30.25,30.15,9,3,13,0.00
2012-3-14,83.8,71.4,58.6,66.0,63.3,58.0,98,78,51,30.24,30.13,7,2,13,0.00
2012-3-15,86.0,73.2,60.3,67.0,64.3,60.0,99,75,48,30.24,30.12,8,3,16,0.00
2012-3-16,82.9,73.0,62.8,67.0,64.4,61.0,98,76,50,30.23,30.12,9,2,12,0.00
2012-3-17,85.5,73.3,61.0,66.0,62.9,57.0,97,72,39,30.23,30.12,7,2,13,0.00
2012-3-18,85.2,72.0,58.3,67.0,62.2,56.0,98,73,37,30.24,30.11,9,2,14,0.00
2012-3-19,87.1,73.0,60.7,66.0,62.4,57.0,98,72,38,30.18,30.04,10,3,15,0.00
2012-3-20,84.7,74.7,65.6,67.0,63.7,61.0,90,70,46,30.10,30.00,10,4,17,0.00
2012-3-21,89.3,75.3,66.8,71.0,67.4,63.0,95,78,47,30.13,30.01,10,4,18,0.04
2012-3-22,88.4,76.1,69.4,73.0,69.2,67.0,96,80,55,30.15,30.04,9,3,16,0.01
2012-3-23,84.7,75.9,68.4,70.0,68.8,67.0,96,79,60,30.12,30.01,13,3,14,0.00
2012-3-24,84.5,74.8,67.3,71.0,68.7,67.0,98,83,60,30.04,29.92,9,4,17,0.02
2012-3-25,80.3,73.1,67.3,71.0,63.6,54.0,96,74,48,29.92,29.86,10,4,21,0.32
2012-3-26,82.5,71.2,58.1,65.0,59.0,54.0,97,68,38,30.03,29.89,9,2,13,0.00
2012-3-27,85.4,71.4,57.2,65.0,58.3,53.0,98,68,37,30.16,30.01,9,3,15,0.00
2012-3-28,87.3,74.0,66.5,67.0,63.4,60.0,89,71,45,30.18,30.04,14,3,17,0.00
2012-3-29,84.7,73.2,62.7,69.0,64.5,62.0,98,76,51,30.07,29.97,8,2,11,0.00
2012-3-30,87.3,72.9,63.2,69.0,64.8,61.0,98,78,53,30.05,29.97,10,3,15,0.00
2012-3-31,82.5,74.1,68.5,73.0,68.6,64.0,94,83,71,29.98,29.88,8,4,15,0.07
2012-4-1,82.9,74.5,64.5,71.0,67.5,64.0,97,79,62,29.96,29.88,8,2,14,0.00
2012-4-2,84.7,72.6,61.0,72.0,66.2,61.0,99,82,56,29.93,29.84,10,2,13,0.01
2012-4-3,87.7,73.5,61.5,71.0,66.3,61.0,99,81,43,29.98,29.89,8,1,12,0.00
2012-4-4,86.4,74.5,63.2,73.0,68.5,63.0,99,83,53,29.96,29.82,8,2,19,0.28
2012-4-5,83.2,73.8,65.3,72.0,68.3,65.0,98,84,63,29.86,29.73,10,3,14,0.11
2012-4-6,82.1,74.2,66.6,71.0,65.3,58.0,86,75,50,29.95,29.73,14,4,16,0.00
2012-4-7,83.9,71.4,61.1,62.0,57.3,54.0,85,63,41,30.14,29.95,13,5,17,0.00
2012-4-8,81.8,69.8,61.6,60.0,56.4,54.0,79,64,42,30.18,30.06,10,3,18,0.00
2012-4-9,83.9,69.9,58.5,64.0,60.8,56.0,95,74,50,30.10,29.99,8,2,13,0.00
2012-4-10,85.5,72.0,59.4,65.0,61.7,58.0,97,72,42,30.08,29.98,8,2,13,0.00
2012-4-11,82.7,74.2,65.7,66.0,63.4,61.0,90,70,50,30.07,29.99,8,2,15,0.00
2012-4-12,82.7,73.9,66.6,66.0,54.1,45.0,85,54,28,30.07,29.99,9,2,12,0.00
2012-4-13,85.4,73.2,62.4,68.0,64.2,58.0,94,75,45,30.10,30.02,9,3,15,0.00
2012-4-14,84.8,74.7,66.9,67.0,64.1,62.0,91,71,51,30.20,30.09,14,6,18,0.00
2012-4-15,88.3,75.5,67.9,67.0,62.8,60.0,83,66,39,30.20,30.12,12,4,18,0.00
2012-4-16,88.2,75.4,62.4,65.0,60.6,55.0,92,62,35,30.20,30.10,9,3,16,0.00
2012-4-17,87.5,75.8,66.3,65.0,62.0,57.0,87,64,38,30.16,30.03,10,4,15,0.00
2012-4-18,86.1,75.6,66.6,70.0,66.8,64.0,92,75,53,30.07,29.95,8,3,19,0.00
2012-4-19,82.0,73.6,68.3,77.0,70.4,67.0,98,90,76,29.98,29.87,7,2,11,1.02
2012-4-20,85.5,75.6,65.9,75.0,70.4,66.0,100,85,63,29.91,29.81,12,3,14,0.00
2012-4-21,80.6,70.7,64.2,71.0,67.2,62.0,95,89,68,29.86,29.60,12,3,28,0.71
2012-4-22,78.0,68.2,58.9,70.0,62.4,50.0,100,83,49,29.77,29.53,17,3,21,1.14
2012-4-23,73.3,68.3,63.3,53.0,49.6,47.0,60,51,44,29.91,29.77,16,5,20,0.00
2012-4-24,72.0,64.5,55.9,48.0,43.3,33.0,66,47,35,30.05,29.91,9,3,14,0.00
2012-4-25,79.0,65.5,50.3,57.0,52.8,47.0,97,67,41,30.12,30.02,6,2,11,0.00
2012-4-26,82.3,68.9,56.0,67.0,61.0,55.0,97,78,52,30.16,30.06,9,2,12,0.00
2012-4-27,83.4,71.2,59.0,68.0,63.2,59.0,99,78,52,30.12,30.04,8,2,14,0.00
2012-4-28,88.3,74.7,62.2,73.0,68.2,62.0,98,82,56,30.09,30.00,7,2,14,0.03
2012-4-29,89.7,77.4,66.6,71.0,68.6,63.0,99,77,47,30.09,30.00,10,3,14,0.00
2012-4-30,88.1,78.6,69.9,70.0,67.1,64.0,93,70,46,30.09,29.98,16,6,24,0.00
2012-5-1,90.2,79.6,72.2,71.0,68.8,67.0,88,71,49,30.07,29.95,16,7,19,0.00
2012-5-2,91.3,79.5,72.0,73.0,70.2,67.0,92,75,45,30.07,29.98,14,5,19,0.01
2012-5-3,91.3,78.9,71.1,72.0,70.0,68.0,93,76,49,30.09,30.01,9,4,15,0.00
2012-5-4,88.9,78.8,71.7,72.0,70.2,68.0,94,76,53,30.09,29.99,9,3,13,0.00
2012-5-5,89.0,77.9,68.6,74.0,70.5,67.0,97,79,59,30.02,29.92,10,2,15,0.00
2012-5-6,88.6,77.5,68.5,74.0,69.9,67.0,99,79,56,29.98,29.91,9,2,16,0.00
2012-5-7,88.1,77.0,68.6,73.0,69.8,67.0,97,79,58,29.93,29.85,8,2,13,0.00
2012-5-8,87.1,76.9,68.7,73.0,70.1,67.0,96,81,59,29.91,29.84,9,2,13,0.00
2012-5-9,87.7,78.9,70.9,75.0,72.5,69.0,95,81,64,29.89,29.78,13,4,17,0.00
2012-5-10,85.6,77.3,70.1,72.0,66.1,59.0,90,70,44,29.92,29.78,7,2,14,0.00
2012-5-11,93.0,77.3,61.9,70.0,64.0,59.0,97,67,36,30.10,29.91,10,3,18,0.00
2012-5-12,92.1,80.2,71.4,72.0,65.6,61.0,82,62,41,30.15,30.04,14,6,17,0.00
2012-5-13,88.0,77.2,72.1,72.0,67.4,64.0,83,72,53,30.12,30.00,11,4,16,0.00
2012-5-14,89.8,79.0,72.8,76.0,72.2,69.0,93,80,61,30.05,29.94,8,2,11,0.00
2012-5-15,90.6,80.1,70.2,74.0,71.3,69.0,95,76,53,30.01,29.93,8,2,14,0.00
2012-5-16,80.5,74.1,69.7,74.0,70.7,67.0,97,89,73,30.01,29.92,4,2,11,0.82
2012-5-17,85.6,76.7,69.2,75.0,70.2,68.0,99,82,61,29.93,29.86,9,2,10,0.07
2012-5-18,88.1,77.2,66.2,74.0,69.6,66.0,99,79,56,29.94,29.87,8,2,13,0.00
2012-5-19,89.2,77.9,69.2,72.0,69.3,66.0,93,76,50,29.99,29.88,9,3,18,0.00
2012-5-20,88.4,77.2,69.3,69.0,65.2,55.0,90,69,33,30.00,29.92,9,3,13,0.00
2012-5-21,89.0,77.4,64.3,68.0,63.0,58.0,95,64,39,30.00,29.92,8,2,14,0.00
2012-5-22,87.8,75.8,65.0,72.0,67.8,63.0,97,78,56,29.96,29.87,7,2,13,0.00
2012-5-23,91.1,79.0,66.6,74.0,69.1,66.0,99,74,47,29.92,29.82,7,2,11,0.00
2012-5-24,93.2,81.2,72.4,77.0,72.7,69.0,94,77,50,29.91,29.81,9,2,13,0.26
2012-5-25,92.7,81.1,70.2,78.0,73.6,70.0,99,79,55,30.03,29.89,8,2,13,0.27
2012-5-26,90.8,81.5,71.1,75.0,72.2,67.0,97,75,50,30.06,29.94,8,2,12,0.00
2012-5-27,87.7,81.1,72.4,79.0,73.5,68.0,93,78,66,29.98,29.83,9,2,14,0.21
2012-5-28,87.8,82.3,78.7,80.0,76.5,73.0,88,83,72,29.90,29.81,14,6,18,0.00
2012-5-29,83.8,79.8,75.6,76.0,74.6,71.0,89,84,77,29.93,29.85,16,6,20,0.01
2012-5-30,87.4,82.2,78.4,79.0,76.3,74.0,88,82,72,29.91,29.83,12,5,17,0.00
2012-5-31,89.7,81.4,75.1,78.0,74.7,71.0,95,81,63,29.92,29.85,12,3,14,0.00
2012-6-1,81.9,77.2,71.9,75.0,72.9,70.0,96,87,74,29.95,29.84,10,2,17,0.56
2012-6-2,87.4,79.9,71.8,77.0,73.1,70.0,95,80,64,29.98,29.87,9,3,15,0.00
2012-6-3,89.6,78.9,68.1,75.0,70.6,67.0,97,77,57,30.05,29.94,7,1,11,0.00
2012-6-4,87.5,79.6,69.6,77.0,73.6,68.0,96,82,71,29.98,29.85,9,3,15,0.00
2012-6-5,84.3,79.0,73.4,77.0,74.1,70.0,96,85,71,29.88,29.79,12,4,23,0.39
2012-6-6,84.5,77.9,73.4,78.0,73.7,70.0,97,87,71,29.91,29.83,14,3,21,0.02
2012-6-7,82.6,77.0,73.2,80.0,75.2,72.0,98,94,84,29.94,29.88,10,2,21,0.76
2012-6-8,87.4,76.8,70.6,79.0,73.9,70.0,97,91,75,29.99,29.88,8,2,12,1.14
2012-6-9,89.8,80.0,71.3,81.0,75.4,70.0,97,86,69,30.01,29.88,10,3,13,0.01
2012-6-10,95.0,83.7,75.8,81.0,76.4,73.0,96,80,55,30.12,29.96,8,3,14,0.04
2012-6-11,97.1,84.0,74.1,78.0,74.4,71.0,90,74,52,30.11,30.03,6,2,10,0.00
2012-6-12,90.8,83.3,75.3,78.0,74.0,71.0,89,74,56,30.07,29.94,11,3,12,0.00
2012-6-13,91.1,83.5,76.3,79.0,75.7,73.0,90,78,63,29.98,29.89,8,2,13,0.00
2012-6-14,93.0,82.9,75.1,79.0,74.3,70.0,94,76,58,30.00,29.89,8,2,14,0.00
2012-6-15,91.8,80.2,72.9,76.0,72.0,70.0,92,77,54,30.03,29.94,8,3,12,0.01
2012-6-16,91.7,81.9,73.5,73.0,69.3,61.0,91,68,37,30.04,29.95,12,4,17,0.00
2012-6-17,90.5,81.6,72.1,71.0,67.5,65.0,91,64,44,30.06,29.91,10,4,15,0.00
2012-6-18,91.5,82.0,72.3,70.0,66.4,62.0,85,61,39,30.04,29.95,13,5,20,0.00
2012-6-19,90.2,80.3,71.8,71.0,67.3,64.0,86,66,47,30.05,29.97,13,5,16,0.00
2012-6-20,89.9,79.3,74.5,76.0,71.9,67.0,94,79,60,30.03,29.93,14,5,18,0.02
2012-6-21,93.3,80.3,75.0,76.0,74.2,72.0,95,83,52,29.98,29.84,9,4,14,0.03
2012-6-22,89.8,80.3,75.4,78.0,75.1,72.0,95,85,63,29.89,29.82,9,3,15,0.07
2012-6-23,80.0,76.7,74.2,77.0,74.7,73.0,97,93,84,29.93,29.84,13,4,15,0.23
2012-6-24,78.6,76.6,75.0,78.0,75.8,74.0,99,97,95,29.90,29.64,21,7,25,6.82
2012-6-25,88.1,80.5,75.3,80.0,76.7,75.0,98,88,74,29.68,29.59,17,8,27,0.76
2012-6-26,85.9,80.4,76.4,79.0,76.7,75.0,95,88,80,29.64,29.54,21,9,27,0.34
2012-6-27,86.7,79.1,73.8,77.0,73.7,71.0,94,84,69,30.00,29.62,11,3,24,0.01
2012-6-28,91.0,81.1,71.5,74.0,68.7,66.0,90,68,47,30.07,29.99,8,2,10,0.00
2012-6-29,89.5,79.4,69.0,75.0,70.8,67.0,96,76,59,30.05,29.95,6,1,10,0.00
2012-6-30,89.3,81.1,73.7,75.0,72.6,70.0,92,76,59,30.01,29.92,10,2,14,0.00
2012-7-1,90.8,81.8,73.6,78.0,75.3,71.0,97,81,64,30.08,29.96,8,2,12,0.00
2012-7-2,92.3,82.4,74.4,79.0,75.3,73.0,97,80,61,30.09,30.00,8,2,12,0.00
2012-7-3,93.7,82.9,73.9,78.0,74.2,72.0,97,76,54,30.08,29.97,6,1,10,0.00
2012-7-4,95.9,83.4,73.7,78.0,74.1,72.0,96,75,49,30.08,30.00,6,1,11,0.00
2012-7-5,92.3,81.7,74.0,78.0,74.0,71.0,95,78,60,30.07,29.96,5,1,8,0.09
2012-7-6,92.6,82.4,74.2,79.0,74.9,72.0,96,79,58,30.05,29.97,7,1,10,0.00
2012-7-7,94.6,84.5,75.7,79.0,75.6,73.0,93,76,56,30.07,30.01,6,1,11,0.01
2012-7-8,96.7,85.0,74.9,79.0,75.0,72.0,94,73,55,30.09,29.98,6,2,13,0.00
2012-7-9,91.6,82.8,76.4,80.0,74.8,70.0,95,78,56,30.06,29.95,7,1,13,0.27
2012-7-10,97.3,81.6,74.2,78.0,74.4,71.0,96,80,50,30.04,29.95,9,2,17,0.51
2012-7-11,92.9,79.0,72.7,78.0,74.4,71.0,97,87,59,30.03,29.95,12,3,14,1.07
2012-7-12,90.8,79.6,74.1,78.0,75.2,73.0,98,87,59,30.02,29.93,7,2,11,0.31
2012-7-13,92.4,80.5,75.3,78.0,75.5,74.0,97,86,61,30.05,29.95,10,2,15,0.93
2012-7-14,93.1,83.0,75.5,78.0,75.1,73.0,96,78,55,30.08,29.99,10,3,17,0.00
2012-7-15,92.4,81.0,75.3,77.0,74.7,73.0,96,82,56,30.10,30.02,8,2,11,0.15
2012-7-16,87.2,79.7,72.4,81.0,75.5,71.0,98,87,68,30.07,29.95,9,2,16,1.22
2012-7-17,87.9,78.2,72.1,79.0,74.6,71.0,98,89,72,30.04,29.94,13,3,18,1.65
2012-7-18,86.7,77.5,72.8,79.0,74.8,71.0,97,91,77,30.11,29.97,6,2,22,1.41
2012-7-19,91.8,82.5,74.5,82.0,77.1,73.0,98,84,66,30.16,30.08,8,2,12,0.00
2012-7-20,95.3,83.9,74.3,80.0,76.4,73.0,98,79,60,30.11,30.03,5,1,10,0.00
2012-7-21,96.3,84.3,73.1,80.0,76.2,70.0,93,78,50,30.11,30.01,9,2,19,0.13
2012-7-22,95.5,80.3,71.6,80.0,75.2,69.0,98,85,57,30.14,30.01,12,2,26,1.09
2012-7-23,89.0,79.3,74.0,80.0,74.8,73.0,97,86,70,30.13,30.08,10,3,19,0.00
2012-7-24,90.5,81.7,76.2,81.0,76.0,73.0,95,83,65,30.12,30.02,8,3,15,0.01
2012-7-25,90.8,84.3,79.6,80.0,77.1,75.0,87,79,68,30.04,29.98,11,4,18,0.00
2012-7-26,91.1,86.1,78.2,80.0,77.6,75.0,90,76,66,30.04,29.97,11,4,16,0.00
2012-7-27,93.4,84.0,75.8,80.0,76.7,74.0,95,79,63,30.08,29.98,9,2,12,0.00
2012-7-28,93.6,82.6,74.5,80.0,75.3,73.0,97,80,57,30.10,30.02,10,2,10,0.00
2012-7-29,93.6,84.1,73.6,80.0,75.8,72.0,97,77,61,30.07,29.98,10,3,15,0.00
2012-7-30,93.6,83.4,77.7,79.0,75.2,72.0,86,77,59,30.04,29.97,10,2,13,0.02
2012-7-31,91.6,82.8,76.3,80.0,76.1,73.0,92,80,62,30.03,29.96,8,3,14,0.02
2012-8-1,91.3,83.8,75.9,79.0,76.4,74.0,94,79,62,30.00,29.92,9,3,17,0.00
2012-8-2,93.0,84.3,77.5,79.0,75.9,73.0,91,77,60,29.99,29.92,9,2,14,0.00
2012-8-3,95.8,83.5,74.1,79.0,74.2,72.0,97,76,50,30.02,29.92,9,2,12,0.00
2012-8-4,95.8,84.4,75.5,77.0,74.5,71.0,93,74,49,30.04,29.96,9,2,11,0.00
2012-8-5,96.1,82.3,74.5,81.0,76.0,73.0,96,82,61,30.09,29.98,10,2,19,1.07
2012-8-6,94.0,82.2,76.4,81.0,76.6,74.0,96,84,62,30.07,29.96,8,3,14,0.09
2012-8-7,92.4,82.5,75.6,81.0,77.0,74.0,96,84,63,30.02,29.95,7,2,11,0.00
2012-8-8,94.2,84.6,76.7,81.0,77.5,75.0,96,80,60,30.03,29.96,8,2,12,0.00
2012-8-9,96.4,85.5,75.2,80.0,76.5,73.0,95,76,53,30.02,29.91,7,2,12,0.00
2012-8-10,94.9,83.7,76.4,80.0,75.8,72.0,94,78,57,29.98,29.89,10,2,13,0.00
2012-8-11,92.6,83.3,76.4,80.0,75.8,71.0,93,79,60,30.00,29.91,10,2,14,0.00
2012-8-12,93.6,83.9,77.8,79.0,76.2,74.0,91,78,58,30.02,29.95,7,2,14,0.00
2012-8-13,93.2,84.0,75.8,80.0,76.0,74.0,96,78,60,30.06,29.99,6,1,11,0.00
2012-8-14,94.9,84.8,76.5,79.0,75.8,73.0,95,76,56,30.03,29.96,11,2,15,0.00
2012-8-15,97.2,85.3,75.8,79.0,75.6,73.0,91,74,52,30.04,29.95,7,2,11,0.00
2012-8-16,97.3,85.6,76.6,81.0,77.1,75.0,96,77,55,30.07,29.97,8,1,13,0.00
2012-8-17,90.8,83.1,77.3,79.0,76.1,74.0,95,80,66,30.03,29.92,7,2,11,0.00
2012-8-18,85.2,79.4,72.6,79.0,75.5,72.0,97,88,76,30.02,29.88,8,2,19,3.98
2012-8-19,92.2,83.4,75.6,81.0,77.8,75.0,99,84,68,29.98,29.91,13,4,18,0.22
2012-8-20,93.0,83.5,75.4,82.0,77.5,74.0,98,83,66,30.01,29.89,14,4,22,1.02
2012-8-21,92.7,80.3,72.5,81.0,76.2,71.0,98,88,68,30.09,29.93,11,3,20,1.66
2012-8-22,88.6,77.3,73.4,79.0,74.6,72.0,98,92,69,30.08,29.99,11,2,12,0.44
2012-8-23,89.0,80.3,73.4,78.0,74.0,71.0,98,82,64,30.10,30.00,5,1,9,0.01
2012-8-24,92.6,81.5,72.1,77.0,73.4,69.0,98,78,52,30.05,29.93,8,2,12,0.00
2012-8-25,90.2,80.4,73.5,76.0,73.7,72.0,95,81,62,30.01,29.92,10,3,16,0.00
2012-8-26,83.6,78.9,75.8,77.0,75.2,72.0,95,88,79,29.99,29.79,13,5,21,0.14
2012-8-27,86.1,78.8,75.7,80.0,76.7,75.0,97,93,81,29.82,29.70,14,7,25,1.04
2012-8-28,90.0,83.4,78.5,82.0,78.6,77.0,95,85,72,29.94,29.82,14,5,21,0.01
2012-8-29,90.0,82.9,77.6,81.0,77.4,74.0,94,84,70,29.97,29.89,11,4,16,0.00
2012-8-30,94.3,83.6,76.8,80.0,76.7,75.0,95,81,59,30.10,29.94,11,3,12,0.00
2012-8-31,91.4,83.7,75.7,81.0,77.1,74.0,97,81,60,30.16,30.06,7,2,10,0.00
2012-9-1,92.4,84.1,76.8,79.0,76.1,73.0,95,78,56,30.14,30.03,8,2,11,0.00
2012-9-2,91.3,82.0,74.2,76.0,73.0,65.0,95,76,46,30.08,29.98,9,2,9,0.00
2012-9-3,93.1,82.0,71.7,76.0,73.4,70.0,96,76,55,30.05,29.96,8,2,11,0.00
2012-9-4,94.2,82.3,72.8,78.0,73.9,69.0,99,78,46,30.01,29.93,7,1,12,0.00
2012-9-5,92.9,82.7,74.4,78.0,74.9,72.0,93,78,60,29.98,29.92,9,2,15,0.00
2012-9-6,89.5,79.4,73.1,83.0,75.8,71.0,96,89,68,30.02,29.93,10,2,17,2.08
2012-9-7,91.5,81.8,73.6,80.0,76.2,72.0,98,84,68,29.99,29.89,7,2,13,0.00
2012-9-8,91.2,84.2,79.1,79.0,76.3,74.0,86,77,64,29.95,29.86,13,4,19,0.00
2012-9-9,85.3,80.5,73.5,80.0,76.6,72.0,98,88,79,29.97,29.84,13,4,19,0.40
2012-9-10,89.2,80.5,73.8,81.0,75.3,70.0,99,85,64,30.02,29.91,7,1,10,0.34
2012-9-11,89.3,81.3,75.3,77.0,73.8,70.0,93,79,62,30.11,29.99,16,4,18,0.00
2012-9-12,89.6,80.8,75.1,75.0,71.3,67.0,85,73,56,30.11,30.03,11,4,18,0.01
2012-9-13,89.9,81.2,75.0,75.0,73.1,71.0,90,77,54,30.09,29.99,11,4,18,0.00
2012-9-14,89.8,80.7,75.2,77.0,73.9,72.0,94,80,63,30.06,29.95,9,3,12,0.09
2012-9-15,89.5,80.2,74.8,77.0,74.0,72.0,93,82,61,30.06,29.97,10,3,16,0.04
2012-9-16,87.5,77.7,72.7,79.0,73.7,72.0,97,88,67,30.04,29.96,10,2,13,1.47
2012-9-17,91.1,80.9,72.8,79.0,75.3,72.0,98,84,63,30.00,29.88,7,2,16,0.01
2012-9-18,83.2,78.3,74.2,80.0,75.7,72.0,96,91,85,29.93,29.86,18,3,31,0.55
2012-9-19,87.7,80.6,76.5,78.0,75.3,73.0,97,84,68,30.03,29.89,9,3,13,0.05
2012-9-20,89.2,80.1,75.3,79.0,75.4,71.0,99,86,68,30.02,29.93,4,1,9,0.01
2012-9-21,87.3,79.0,73.6,77.0,73.5,71.0,95,84,63,30.00,29.90,11,2,21,0.00
2012-9-22,87.5,79.2,72.8,77.0,73.1,71.0,96,83,64,30.03,29.93,7,2,10,0.00
2012-9-23,89.9,79.8,70.4,79.0,71.8,61.0,99,78,55,30.07,30.00,8,2,13,0.00
2012-9-24,84.0,76.8,71.7,64.0,59.5,55.0,74,56,40,30.11,30.01,7,2,10,0.00
2012-9-25,88.9,75.0,64.2,72.0,66.2,60.0,95,76,38,30.09,30.02,6,1,10,0.00
2012-9-26,89.9,78.7,69.5,75.0,71.4,67.0,98,80,54,30.10,30.02,6,2,9,0.00
2012-9-27,90.3,80.3,72.1,77.0,73.1,71.0,97,80,57,30.11,30.00,7,2,11,0.00
2012-9-28,89.8,80.3,72.7,76.0,73.7,69.0,98,81,52,30.05,29.92,6,2,11,0.00
2012-9-29,92.4,80.3,74.3,79.0,74.8,72.0,97,84,53,29.98,29.85,8,2,10,0.00
2012-9-30,91.0,80.8,73.1,78.0,74.9,73.0,99,83,58,29.89,29.77,8,2,12,0.00
2012-10-1,90.3,81.3,75.1,79.0,76.2,73.0,97,85,67,29.80,29.72,9,2,17,0.29
2012-10-2,85.8,80.9,76.4,79.0,75.6,73.0,95,84,74,30.00,29.77,10,3,19,0.15
2012-10-3,80.0,75.8,72.9,78.0,74.2,72.0,98,94,88,30.13,29.98,12,2,22,1.35
2012-10-4,90.1,78.7,72.2,80.0,74.8,70.0,98,88,67,30.16,30.06,15,2,23,0.19
2012-10-5,88.9,78.9,72.6,80.0,74.5,71.0,97,87,69,30.11,29.94,7,2,14,0.01
2012-10-6,88.7,79.0,73.3,79.0,74.4,71.0,98,86,70,29.99,29.86,5,2,14,0.00
2012-10-7,89.2,77.7,71.1,79.0,72.8,70.0,98,85,63,29.98,29.90,6,1,9,0.00
2012-10-8,84.0,77.3,71.1,77.0,74.1,70.0,98,90,78,30.02,29.93,6,1,9,0.00
2012-10-9,86.3,77.4,70.0,77.0,73.3,70.0,100,88,68,30.04,29.96,5,1,9,0.00
2012-10-10,85.0,76.8,70.1,73.0,69.8,66.0,93,80,55,30.10,30.02,6,2,12,0.00
2012-10-11,84.5,75.3,65.7,71.0,67.3,65.0,97,77,56,30.16,30.07,8,2,11,0.00
2012-10-12,85.5,75.8,65.6,71.0,66.6,64.0,94,74,52,30.18,30.08,8,2,11,0.00
2012-10-13,86.0,76.9,69.8,69.0,66.5,64.0,87,71,53,30.17,30.06,13,3,18,0.00
2012-10-14,88.9,78.7,70.0,74.0,70.2,67.0,92,76,54,30.11,29.97,8,3,14,0.00
2012-10-15,88.0,77.3,70.4,76.0,72.4,70.0,98,85,63,29.98,29.81,5,1,15,0.00
2012-10-16,86.1,74.4,65.8,73.0,67.2,61.0,99,80,55,29.87,29.79,5,1,12,0.00
2012-10-17,80.9,71.8,64.9,71.0,67.0,61.0,97,85,71,29.89,29.80,4,1,6,0.00
2012-10-18,87.4,74.9,65.9,76.0,70.7,65.0,99,88,64,29.88,29.79,7,2,9,0.12
2012-10-19,85.7,76.0,65.8,76.0,71.2,66.0,100,86,65,29.88,29.80,8,2,12,0.01
2012-10-20,82.4,74.0,60.0,73.0,63.0,55.0,92,70,50,29.97,29.84,9,2,10,0.00
2012-10-21,81.3,68.7,57.2,62.0,55.6,52.0,95,66,39,30.04,29.95,8,2,13,0.00
2012-10-22,84.2,74.4,64.6,66.0,63.5,60.0,88,70,49,30.08,29.96,9,3,15,0.00
2012-10-23,84.3,75.0,66.5,69.0,65.4,63.0,89,73,54,30.05,29.94,9,3,15,0.00
2012-10-24,86.5,76.6,68.9,72.0,68.0,65.0,91,76,54,30.01,29.88,10,3,15,0.00
2012-10-25,84.0,76.4,71.2,73.0,69.9,68.0,91,81,64,29.92,29.78,10,4,17,0.00
2012-10-26,83.4,76.9,71.9,73.0,69.3,65.0,91,78,61,29.79,29.64,14,4,20,0.00
2012-10-27,78.4,74.4,71.2,68.0,65.6,63.0,82,74,66,29.72,29.61,17,6,22,0.00
2012-10-28,75.1,69.8,64.1,68.0,61.1,53.0,91,74,59,29.82,29.70,11,4,20,0.02
2012-10-29,68.5,63.8,59.6,54.0,49.8,46.0,72,61,47,29.89,29.79,10,5,22,0.00
2012-10-30,67.9,62.9,58.3,51.0,46.8,43.0,63,56,44,29.96,29.84,16,5,24,0.00
2012-10-31,72.4,64.9,57.8,60.0,53.3,51.0,91,67,50,30.06,29.95,8,2,14,0.00
2012-11-1,76.8,68.9,59.7,67.0,62.8,58.0,97,81,66,30.04,29.95,8,2,12,0.00
2012-11-2,77.4,64.1,53.7,63.0,56.5,50.0,99,80,39,30.09,30.01,6,1,9,0.00
2012-11-3,80.5,66.7,55.7,70.0,62.8,55.0,99,88,66,30.13,30.05,5,1,11,0.01
2012-11-4,80.5,67.7,60.7,70.0,64.7,61.0,100,91,62,30.11,30.00,5,1,7,0.01
2012-11-5,78.1,67.8,60.2,69.0,62.6,57.0,100,85,52,30.01,29.92,4,1,12,0.01
2012-11-6,75.4,65.9,59.3,69.0,61.5,53.0,99,86,65,29.93,29.82,6,1,11,0.13
2012-11-7,66.9,62.9,58.2,59.0,52.6,46.0,85,69,55,29.99,29.87,11,3,20,0.00
2012-11-8,65.5,56.6,47.1,49.0,44.9,41.0,92,66,43,30.18,29.99,9,2,13,0.00
2012-11-9,72.5,56.6,43.2,51.0,46.2,39.0,98,73,33,30.26,30.15,9,1,12,0.00
2012-11-10,76.2,63.5,49.0,57.0,52.2,47.0,97,70,45,30.30,30.20,10,2,16,0.00
2012-11-11,80.6,67.6,54.5,63.0,59.4,53.0,97,77,50,30.28,30.19,11,3,16,0.00
2012-11-12,82.8,70.6,59.7,68.0,63.9,59.0,98,81,53,30.23,30.13,6,1,13,0.00
2012-11-13,80.1,70.4,64.7,69.0,66.0,64.0,97,87,64,30.18,30.08,8,1,10,0.00
2012-11-14,75.4,67.5,61.1,68.0,64.5,61.0,99,90,75,30.18,30.08,6,2,15,0.00
2012-11-15,72.1,66.2,61.0,66.0,62.8,59.0,95,89,75,30.14,30.06,7,2,10,0.00
2012-11-16,67.9,61.5,58.2,60.0,57.5,54.0,97,87,75,30.18,30.08,5,2,9,0.00
2012-11-17,75.3,65.2,58.9,65.0,60.2,56.0,93,84,67,30.15,30.06,11,3,15,0.00
2012-11-18,72.9,64.6,59.2,62.0,59.0,55.0,92,82,62,30.18,30.10,9,3,14,0.00
2012-11-19,67.9,60.2,52.5,59.0,55.5,51.0,96,85,70,30.18,30.07,8,2,11,0.00
2012-11-20,69.5,63.2,58.4,60.0,57.8,54.0,95,83,71,30.10,29.98,10,2,15,0.00
2012-11-21,71.9,62.8,53.5,58.0,55.9,53.0,99,80,57,30.09,30.00,8,2,15,0.00
2012-11-22,73.0,59.3,48.7,55.0,47.3,37.0,96,69,28,30.18,30.08,7,2,12,0.00
2012-11-23,70.9,54.9,41.0,50.0,44.4,40.0,96,72,38,30.23,30.10,10,1,13,0.00
2012-11-24,71.4,57.9,47.8,64.0,52.6,46.0,99,84,68,30.11,30.03,10,2,13,0.00
2012-11-25,67.9,52.7,41.5,47.0,39.4,33.0,94,65,31,30.18,30.09,5,1,10,0.00
2012-11-26,78.5,58.4,41.5,62.0,51.2,41.0,98,79,51,30.22,30.11,6,1,9,0.00
2012-11-27,80.6,64.4,53.0,67.0,60.2,51.0,99,87,62,30.17,30.09,10,1,13,0.02
2012-11-28,71.8,64.1,58.2,65.0,60.7,55.0,100,89,72,30.26,30.11,10,3,13,0.00
2012-11-29,77.4,64.5,53.2,60.0,56.1,51.0,93,76,50,30.27,30.18,9,3,13,0.00
2012-11-30,76.7,66.2,58.8,61.0,57.5,56.0,91,75,52,30.25,30.14,8,2,14,0.00
2012-12-1,78.4,65.5,53.3,63.0,58.2,53.0,98,79,53,30.25,30.15,8,2,13,0.00
2012-12-2,80.6,68.8,61.0,65.0,61.8,58.0,95,80,47,30.27,30.16,8,2,14,0.00
2012-12-3,79.1,68.9,61.9,67.0,62.8,60.0,96,82,55,30.27,30.16,8,2,13,0.00
2012-12-4,78.4,67.0,55.3,62.0,57.5,51.0,99,75,38,30.27,30.16,11,2,12,0.00
2012-12-5,76.1,65.7,55.8,65.0,60.2,55.0,98,83,57,30.18,30.03,8,1,9,0.00
2012-12-6,79.5,70.8,63.7,66.0,63.5,62.0,94,79,59,30.04,29.91,8,2,10,0.00
2012-12-7,76.6,66.9,62.3,67.0,63.6,61.0,98,89,69,30.01,29.91,8,1,11,0.00
2012-12-8,81.4,69.8,61.5,70.0,66.1,61.0,99,89,67,30.04,29.95,7,2,11,0.00
2012-12-9,78.9,68.5,63.2,70.0,66.2,63.0,99,92,72,30.09,30.00,5,1,7,0.00
2012-12-10,78.6,68.4,60.0,73.0,67.2,60.0,100,96,81,30.02,29.84,8,2,14,0.21
2012-12-11,77.6,71.2,66.2,75.0,70.4,66.0,100,97,88,30.01,29.87,6,2,12,0.02
2012-12-12,82.4,71.7,66.4,75.0,69.7,66.0,100,94,75,30.08,29.96,6,1,10,0.03
2012-12-13,69.4,64.0,55.7,66.0,59.5,52.0,98,86,71,30.20,30.06,9,3,16,0.00
2012-12-14,67.3,58.6,53.7,59.0,55.0,51.0,96,88,73,30.22,30.10,8,3,11,0.00
2012-12-15,78.0,62.7,54.6,67.0,60.2,54.0,100,92,66,30.14,30.04,5,1,10,0.01
2012-12-16,81.0,66.4,57.8,68.0,62.9,58.0,100,90,63,30.05,29.94,7,1,11,0.01
2012-12-17,79.2,69.5,60.1,71.0,66.9,60.0,100,92,75,29.97,29.87,10,2,17,0.00
2012-12-18,78.2,67.9,50.9,73.0,64.4,50.0,99,89,72,30.03,29.87,7,2,13,0.01
2012-12-19,75.1,56.5,46.6,56.0,50.3,45.0,99,83,35,30.11,30.03,7,1,10,0.01
2012-12-20,80.7,67.2,50.7,70.0,63.5,50.0,99,89,68,30.06,29.93,11,3,20,0.18
2012-12-21,67.5,57.4,53.6,66.0,45.3,38.0,96,65,54,30.22,29.98,10,5,22,0.00
2012-12-22,58.9,50.8,39.0,42.0,38.7,35.0,96,65,41,30.31,30.20,8,3,17,0.00
2012-12-23,67.3,50.7,37.4,47.0,39.3,27.0,98,70,23,30.26,30.14,6,1,8,0.00
2012-12-24,67.0,57.5,46.1,62.0,54.1,45.0,97,88,73,30.14,29.97,9,1,11,0.01
2012-12-25,73.6,63.9,52.3,64.0,58.7,52.0,99,84,65,30.01,29.86,8,2,14,0.01
2012-12-26,74.7,65.0,54.9,70.0,61.1,47.0,97,87,76,30.01,29.81,11,4,18,0.48
2012-12-27,58.6,51.9,42.2,51.0,46.7,41.0,97,83,70,30.11,30.00,7,2,12,0.00
2012-12-28,69.1,56.7,43.0,65.0,52.5,43.0,99,88,57,30.09,29.90,5,2,8,0.63
2012-12-29,72.5,65.3,53.5,70.0,62.6,47.0,100,91,76,30.17,29.86,13,5,19,0.06
2012-12-30,56.6,49.1,40.8,46.0,39.1,33.0,86,69,49,30.36,30.18,9,4,17,0.00
2012-12-31,73.5,55.2,42.3,58.0,50.0,41.0,98,84,58,30.34,30.19,9,1,11,0.00
2013-1-1,77.1,63.5,50.3,63.0,57.2,50.0,99,82,58,30.21,30.03,9,1,14,0.00